Location: Glenrock
(40.4436°N, 95.8911°W)
Time: 12:45:43
(UTC-05:00)

Tiangong 2 - Visible Passes

Search period start: 24 May 2018 00:00
Search period end: 03 June 2018 00:00
Orbit: 382 x 385 km, 42.8° (Epoch: 24 May)

Date Brightness Start Highest point End Pass type
(mag) Time Alt. Az. Time Alt. Az. Time Alt. Az.
24 May 1.5 22:16:44 10° W 22:19:52 63° N 22:22:08 17° ENE visible
24 May 3.9 23:53:40 10° WNW 23:54:21 15° WNW 23:54:21 15° WNW visible
25 May 1.1 21:16:52 10° WSW 21:20:01 84° NNW 21:23:12 10° ENE visible
25 May 1.7 22:53:49 10° WNW 22:56:55 53° N 22:57:22 47° NE visible
26 May 1.8 21:53:56 10° W 21:57:02 54° N 22:00:08 10° ENE visible
26 May 2.9 23:30:47 10° WNW 23:32:27 28° WNW 23:32:27 28° WNW visible
27 May 1.5 22:30:57 10° WNW 22:34:04 59° N 22:35:16 32° ENE visible
28 May 1.8 21:31:05 10° WNW 21:34:10 52° N 21:37:17 10° E visible
28 May 1.9 23:07:52 10° WNW 23:10:13 46° W 23:10:13 46° W visible
29 May 1.1 22:08:02 10° WNW 22:11:11 75° NNE 22:12:58 23° E visible
29 May 4.1 23:44:59 10° W 23:45:08 11° W 23:45:08 11° W visible
30 May 1.5 22:44:58 10° W 22:47:52 46° SW 22:47:52 46° SW visible
31 May 1.0 21:45:05 10° WNW 21:48:14 77° SSW 21:50:36 16° ESE visible
31 May 3.9 23:22:31 10° WSW 23:22:47 11° WSW 23:22:47 11° WSW visible
01 Jun 2.3 22:22:10 10° W 22:24:56 28° SSW 22:25:32 26° S visible
02 Jun 1.6 21:22:08 10° W 21:25:11 48° SSW 21:28:14 10° SE visible
